TimeCST,TemperatureF,Dew PointF,Humidity,Sea Level PressureIn,VisibilityMPH,Wind Direction,Wind SpeedMPH,Gust SpeedMPH,PrecipitationIn,Events,Conditions,WindDirDegrees,DateUTC
12:15 AM,35.6,26.6,70,30.00,10.0,SW,10.4,-,N/A,,Clear,220,2013-01-19 06:15:00
12:35 AM,35.6,26.6,70,29.99,10.0,SSW,9.2,-,N/A,,Clear,210,2013-01-19 06:35:00
12:55 AM,35.6,26.6,70,29.99,10.0,WSW,8.1,-,N/A,,Clear,240,2013-01-19 06:55:00
1:15 AM,33.8,26.6,75,29.99,10.0,WSW,10.4,-,N/A,,Clear,240,2013-01-19 07:15:00
1:35 AM,33.8,26.6,75,29.99,10.0,WSW,10.4,-,N/A,,Clear,240,2013-01-19 07:35:00
1:55 AM,33.8,26.6,75,30.00,10.0,WSW,9.2,-,N/A,,Clear,240,2013-01-19 07:55:00
2:15 AM,33.8,26.6,75,30.00,10.0,WSW,9.2,-,N/A,,Clear,250,2013-01-19 08:15:00
2:35 AM,33.8,24.8,70,30.00,10.0,West,6.9,-,N/A,,Clear,270,2013-01-19 08:35:00
2:55 AM,33.8,24.8,70,30.00,10.0,West,8.1,-,N/A,,Clear,280,2013-01-19 08:55:00
3:15 AM,33.8,24.8,70,30.00,10.0,WSW,6.9,-,N/A,,Clear,250,2013-01-19 09:15:00
3:35 AM,32.0,23.0,69,30.00,10.0,WSW,5.8,-,N/A,,Clear,250,2013-01-19 09:35:00
3:55 AM,30.2,23.0,75,30.00,10.0,SW,5.8,-,N/A,,Clear,230,2013-01-19 09:55:00
4:15 AM,30.2,23.0,75,29.99,10.0,Calm,Calm,-,N/A,,Clear,0,2013-01-19 10:15:00
4:35 AM,26.6,21.2,80,30.00,10.0,WNW,6.9,-,N/A,,Clear,300,2013-01-19 10:35:00
4:55 AM,28.4,21.2,74,30.01,10.0,West,4.6,-,N/A,,Clear,260,2013-01-19 10:55:00
5:15 AM,30.2,24.8,80,30.00,10.0,West,6.9,-,N/A,,Clear,260,2013-01-19 11:15:00
5:35 AM,28.4,23.0,80,30.00,10.0,WSW,6.9,-,N/A,,Clear,240,2013-01-19 11:35:00
5:55 AM,30.2,23.0,75,30.00,10.0,SW,6.9,-,N/A,,Clear,230,2013-01-19 11:55:00
6:15 AM,28.4,21.2,74,30.01,10.0,WSW,4.6,-,N/A,,Clear,240,2013-01-19 12:15:00
6:35 AM,26.6,19.4,74,30.02,10.0,WSW,4.6,-,N/A,,Clear,250,2013-01-19 12:35:00
6:55 AM,26.6,19.4,74,30.02,10.0,West,4.6,-,N/A,,Clear,260,2013-01-19 12:55:00
7:15 AM,28.4,21.2,74,30.03,10.0,WNW,6.9,-,N/A,,Clear,300,2013-01-19 13:15:00
7:35 AM,28.4,19.4,69,30.03,10.0,WNW,10.4,-,N/A,,Clear,300,2013-01-19 13:35:00
7:55 AM,33.8,23.0,65,30.03,10.0,NW,12.7,-,N/A,,Clear,310,2013-01-19 13:55:00
8:15 AM,35.6,23.0,60,30.04,10.0,NW,11.5,-,N/A,,Clear,310,2013-01-19 14:15:00
8:35 AM,37.4,23.0,56,30.05,10.0,NW,11.5,-,N/A,,Clear,310,2013-01-19 14:35:00
8:55 AM,39.2,24.8,56,30.06,10.0,NW,15.0,-,N/A,,Clear,310,2013-01-19 14:55:00
9:15 AM,42.8,24.8,49,30.07,10.0,NW,12.7,-,N/A,,Clear,310,2013-01-19 15:15:00
9:35 AM,42.8,24.8,49,30.08,10.0,NW,11.5,-,N/A,,Clear,320,2013-01-19 15:35:00
9:55 AM,44.6,24.8,46,30.10,10.0,NW,16.1,20.7,N/A,,Clear,320,2013-01-19 15:55:00
10:15 AM,46.4,24.8,43,30.11,10.0,NNW,16.1,19.6,N/A,,Clear,330,2013-01-19 16:15:00
10:35 AM,46.4,24.8,43,30.12,10.0,NNW,13.8,20.7,N/A,,Clear,330,2013-01-19 16:35:00
10:55 AM,48.2,26.6,43,30.13,10.0,NNW,18.4,23.0,N/A,,Clear,340,2013-01-19 16:55:00
11:15 AM,51.8,26.6,38,30.13,10.0,North,17.3,-,N/A,,Clear,350,2013-01-19 17:15:00
11:35 AM,51.8,24.8,35,30.13,10.0,North,12.7,-,N/A,,Clear,350,2013-01-19 17:35:00
11:55 AM,55.4,24.8,31,30.12,10.0,North,13.8,18.4,N/A,,Clear,360,2013-01-19 17:55:00
12:15 PM,57.2,24.8,29,30.12,10.0,North,15.0,-,N/A,,Clear,360,2013-01-19 18:15:00
12:35 PM,57.2,24.8,29,30.12,10.0,North,15.0,20.7,N/A,,Clear,10,2013-01-19 18:35:00
12:55 PM,59.0,24.8,27,30.11,10.0,North,13.8,-,N/A,,Clear,360,2013-01-19 18:55:00
1:15 PM,59.0,24.8,27,30.11,10.0,North,12.7,-,N/A,,Clear,10,2013-01-19 19:15:00
1:35 PM,60.8,24.8,25,30.11,10.0,North,15.0,-,N/A,,Clear,350,2013-01-19 19:35:00
1:55 PM,60.8,24.8,25,30.11,10.0,North,17.3,-,N/A,,Clear,350,2013-01-19 19:55:00
2:15 PM,60.8,24.8,25,30.11,10.0,North,10.4,-,N/A,,Clear,360,2013-01-19 20:15:00
2:35 PM,60.8,24.8,25,30.11,10.0,NNW,13.8,-,N/A,,Clear,340,2013-01-19 20:35:00
2:55 PM,60.8,23.0,23,30.11,10.0,North,13.8,-,N/A,,Clear,350,2013-01-19 20:55:00
3:15 PM,62.6,23.0,22,30.12,10.0,North,11.5,-,N/A,,Clear,350,2013-01-19 21:15:00
3:35 PM,60.8,23.0,23,30.12,10.0,NNW,13.8,-,N/A,,Clear,340,2013-01-19 21:35:00
3:55 PM,60.8,21.2,22,30.13,10.0,North,13.8,-,N/A,,Clear,350,2013-01-19 21:55:00
4:15 PM,60.8,23.0,23,30.14,10.0,North,11.5,-,N/A,,Clear,350,2013-01-19 22:15:00
4:35 PM,59.0,23.0,25,30.14,10.0,NNW,11.5,-,N/A,,Clear,340,2013-01-19 22:35:00
4:55 PM,57.2,21.2,25,30.14,10.0,NNW,9.2,-,N/A,,Clear,340,2013-01-19 22:55:00
5:15 PM,55.4,21.2,26,30.15,10.0,North,10.4,-,N/A,,Clear,350,2013-01-19 23:15:00
5:35 PM,51.8,21.2,30,30.16,10.0,NNW,9.2,-,N/A,,Clear,340,2013-01-19 23:35:00
5:55 PM,46.4,19.4,34,30.17,10.0,North,6.9,-,N/A,,Clear,350,2013-01-19 23:55:00
6:15 PM,44.6,19.4,37,30.18,10.0,North,5.8,-,N/A,,Clear,350,2013-01-20 00:15:00
6:35 PM,41.0,21.2,45,30.19,10.0,Calm,Calm,-,N/A,,Clear,0,2013-01-20 00:35:00
6:55 PM,37.4,21.2,52,30.20,10.0,Calm,Calm,-,N/A,,Clear,0,2013-01-20 00:55:00
7:15 PM,37.4,21.2,52,30.20,10.0,North,5.8,-,N/A,,Clear,350,2013-01-20 01:15:00
7:35 PM,35.6,19.4,52,30.20,10.0,Calm,Calm,-,N/A,,Clear,0,2013-01-20 01:35:00
7:55 PM,35.6,21.2,56,30.21,10.0,NNW,4.6,-,N/A,,Clear,330,2013-01-20 01:55:00
8:15 PM,33.8,19.4,56,30.21,10.0,Calm,Calm,-,N/A,,Clear,0,2013-01-20 02:15:00
8:35 PM,32.0,19.4,60,30.22,10.0,NW,4.6,-,N/A,,Clear,310,2013-01-20 02:35:00
8:55 PM,32.0,21.2,64,30.22,10.0,Calm,Calm,-,N/A,,Clear,0,2013-01-20 02:55:00
9:15 PM,32.0,21.2,64,30.22,10.0,Calm,Calm,-,N/A,,Clear,0,2013-01-20 03:15:00
9:35 PM,30.2,21.2,69,30.22,10.0,West,3.5,-,N/A,,Clear,270,2013-01-20 03:35:00
9:55 PM,30.2,21.2,69,30.22,10.0,West,3.5,-,N/A,,Clear,260,2013-01-20 03:55:00
10:15 PM,30.2,21.2,69,30.23,10.0,Calm,Calm,-,N/A,,Clear,0,2013-01-20 04:15:00
10:35 PM,26.6,19.4,74,30.23,10.0,WSW,4.6,-,N/A,,Clear,250,2013-01-20 04:35:00
10:55 PM,28.4,21.2,74,30.24,10.0,WSW,4.6,-,N/A,,Clear,240,2013-01-20 04:55:00
11:15 PM,28.4,19.4,69,30.24,10.0,WSW,4.6,-,N/A,,Clear,240,2013-01-20 05:15:00
11:35 PM,26.6,19.4,74,30.24,10.0,Calm,Calm,-,N/A,,Clear,0,2013-01-20 05:35:00
11:55 PM,26.6,19.4,74,30.24,10.0,North,6.9,-,N/A,,Clear,350,2013-01-20 05:55:00